• Processing (Info)

  • MPEC 2006-H44 : 2006 HV30

    The following Minor Planet Electronic Circular may be linked-to from your own Web pages, but must not otherwise be redistributed electronically.

    A form allowing access to any MPEC is at the bottom of this page.


    Read MPEC 2006-H43 Read MPEC 2006-H45


    M.P.E.C. 2006-H44                                Issued 2006 Apr. 26, 15:59 UT
    
         The Minor Planet Electronic Circulars contain information on unusual
             minor planets and routine data on comets.  They are published
       on behalf of Commission 20 of the International Astronomical Union by the
              Minor Planet Center, Smithsonian Astrophysical Observatory,
                              Cambridge, MA 02138, U.S.A.
    
                      Supported in part by the Brinson Foundation
                      Supported in part by the TABASGO Foundation
                 Prepared using the Tamkin Foundation Computer Network
    
                                  MPC@CFA.HARVARD.EDU
              URL http://cfa-www.harvard.edu/iau/mpc.html  ISSN 1523-6714
    
                                       2006 HV30
    
    Observations:
         K06H30V* C2006 04 25.23544 14 29 40.52 +30 31 14.2          20.3 V EH044G96
         K06H30V  C2006 04 25.23873 14 29 41.02 +30 32 03.1          20.6 V EH044G96
         K06H30V  C2006 04 25.24199 14 29 41.49 +30 32 52.1          20.4 V EH044G96
         K06H30V  C2006 04 25.24538 14 29 41.92 +30 33 41.8          20.4 V EH044G96
         K06H30V  C2006 04 25.27418 14 29 45.88 +30 40 49.6          20.6 V EH044G96
         K06H30V  C2006 04 25.27448 14 29 45.88 +30 40 53.9          20.9 V EH044G96
         K06H30V  C2006 04 25.27478 14 29 45.99 +30 40 58.7          20.3 V EH044G96
         K06H30V  C2006 04 25.27508 14 29 45.99 +30 41 02.9          20.5 V EH044G96
         K06H30V  C2006 04 25.35225 14 29 56.50 +31 00 00.3          20.3 V EH044G96
         K06H30V  C2006 04 25.35314 14 29 56.65 +31 00 13.4          20.0 V EH044G96
         K06H30V  C2006 04 25.35344 14 29 56.65 +31 00 17.8          20.2 V EH044G96
         K06H30V  C2006 04 25.35374 14 29 56.68 +31 00 22.6          21.0 V EH044G96
         K06H30V  C2006 04 25.46278 14 30 11.98 +31 26 53.0          19.6 V EH044G96
         K06H30V  C2006 04 25.46314 14 30 12.06 +31 26 57.6          20.6 V EH044G96
         K06H30V  C2006 04 25.46352 14 30 12.09 +31 27 03.4          20.5 V EH044G96
         K06H30V  C2006 04 25.46388 14 30 12.16 +31 27 08.7          20.6 V EH044G96
         K06H30V  C2006 04 25.88025 14 31 24.84 +33 07 14.0                 EH044J95
         K06H30V  C2006 04 25.88418 14 31 25.50 +33 08 11.6                 EH044J95
         K06H30V  C2006 04 25.88813 14 31 26.03 +33 09 08.1          20.3 R EH044J95
         K06H30V  C2006 04 26.28257 14 32 29.82 +34 42 26.9                 EH044G96
         K06H30V  C2006 04 26.28299 14 32 29.84 +34 42 33.0                 EH044G96
         K06H30V  C2006 04 26.28340 14 32 29.92 +34 42 40.1                 EH044G96
         K06H30V  C2006 04 26.28382 14 32 29.94 +34 42 45.3          20.1 V EH044G96
         K06H30V  C2006 04 26.31283 14 32 34.03 +34 49 32.0          19.8 R EH044651
         K06H30V  C2006 04 26.31478 14 32 34.39 +34 49 59.7          19.9 R EH044651
         K06H30V  C2006 04 26.31674 14 32 34.63 +34 50 26.3          19.8 R EH044651
    
    Observer details:
    651 Grasslands Observatory, Tucson.  Observer J. E. McGaha.  0.62-m f/5.1
        reflector + CCD.
    G96 Mt. Lemmon Survey.  Observer R. E. Hill.  Measurers E. C. Beshore,
        E. J. Christensen, G. J. Garradd, A. R. Gibbs, A. D. Grauer, R. E. Hill,
        R. A. Kowalski, S. M. Larson, R. H. McNaught.  1.5-m reflector + CCD.
    J95 Great Shefford.  Observer P. Birtwhistle.  0.40-m f/6.0 Schmidt-Cassegrain
        + CCD.
    
    Orbital elements:
    2006 HV30                                                Earth MOID = 0.1427 AU
    Epoch 2006 Mar. 6.0 TT = JDT 2453800.5                  MPC
    M 310.93108              (2000.0)            P               Q
    n   0.49385777     Peri.   61.49167     -0.11083838     +0.96167701
    a   1.5851418      Node   206.10709     -0.98680807     -0.07653164
    e   0.3690136      Incl.   34.74301     +0.11800294     +0.26328735
    P   2.00           H   22.7           G   0.15           U   7
    Residuals in seconds of arc
    060425 G96  0.5-  0.4-    060425 G96  0.5+  0.2-    060425 J95  0.3-  0.1+
    060425 G96  0.0   0.4-    060425 G96  0.1-  0.2-    060426 G96  0.6+  0.8-
    060425 G96  0.3+  0.1+    060425 G96  0.2-  0.2+    060426 G96  0.1+  0.6-
    060425 G96  0.2-  0.5-    060425 G96  0.0   0.7+    060426 G96  0.4+  0.7+
    060425 G96  0.0   0.0     060425 G96  0.4+  0.0     060426 G96  0.1-  0.1+
    060425 G96  0.6-  0.1-    060425 G96  0.1+  0.3+    060426 651  0.0   0.3+
    060425 G96  0.3+  0.3+    060425 G96  0.3+  0.4+    060426 651  1.0+  0.8+
    060425 G96  0.2-  0.0     060425 J95  0.3-  0.7-    060426 651  0.6+  0.1+
    060425 G96  0.1+  0.2-    060425 J95  0.5+  0.4+
    
    Ephemeris:
    2006 HV30                a,e,i = 1.59, 0.37, 35                  q = 1.0002
    Date    TT    R. A. (2000) Decl.     Delta      r     Elong.  Phase     V
    2006 04 25    14 29.02   +29 32.8    0.148    1.119   137.1    37.7    20.3
    2006 04 26    14 31.70   +33 35.9    0.151    1.115   132.8    41.5    20.5
    2006 04 27    14 34.49   +37 25.7    0.155    1.110   128.7    45.0    20.6
    2006 04 28    14 37.38   +41 01.0    0.160    1.106   124.8    48.3    20.8
    2006 04 29    14 40.37   +44 21.3    0.166    1.102   121.2    51.4    20.9
    2006 04 30    14 43.49   +47 26.7    0.172    1.098   117.8    54.2    21.1
    2006 05 01    14 46.72   +50 17.7    0.178    1.094   114.7    56.8    21.2
    2006 05 02    14 50.08   +52 54.9    0.185    1.090   111.8    59.2    21.3
    2006 05 03    14 53.57   +55 19.2    0.192    1.086   109.1    61.3    21.5
    2006 05 04    14 57.20   +57 31.5    0.200    1.082   106.6    63.2    21.6
    2006 05 05    15 00.96   +59 32.8    0.208    1.079   104.3    65.0    21.7
    2006 05 06    15 04.87   +61 23.9    0.216    1.075   102.1    66.5    21.9
    2006 05 07    15 08.93   +63 05.9    0.224    1.071   100.2    68.0    22.0
    2006 05 08    15 13.14   +64 39.4    0.232    1.068    98.3    69.2    22.1
    2006 05 09    15 17.52   +66 05.3    0.241    1.064    96.6    70.4    22.2
    2006 05 10    15 22.05   +67 24.4    0.249    1.061    95.0    71.4    22.3
    2006 05 11    15 26.76   +68 37.2    0.258    1.058    93.6    72.4    22.4
    2006 05 12    15 31.63   +69 44.3    0.267    1.054    92.2    73.2    22.5
    2006 05 13    15 36.68   +70 46.2    0.275    1.051    90.9    73.9    22.6
    2006 05 14    15 41.91   +71 43.4    0.284    1.048    89.7    74.6    22.7
    2006 05 15    15 47.32   +72 36.3    0.293    1.045    88.6    75.2    22.8
    
    Gareth V. Williams           (C) Copyright 2006 MPC           M.P.E.C. 2006-H44
    

    Read MPEC 2006-H43 Read MPEC 2006-H45


    MPEC number:

    Enter an MPEC number in one of the following forms:

    • 1997-B01 (the full form)
    • J97B01 (the packed version of the full form)
    • B01 (the abbreviated form)